STARLINK-31932, 59929

Orbit data source: Space-Track

STARLINK-31932, 59929 is a payload satellite owned by SpaceX/Seattle (US) in LEO that was launched on Sat, 01 Jun 2024 UTC via an FALCON 9 launch vehicle from the Air Force Eastern Test Range (AFETR). Payload-class satellites include a variety of spacecraft equipped with specific instruments for various scientific and technological missions. These include communications satellites like Starlink; space stations such as the ISS; scientific satellites like the Hubble; Earth observation satellites from companies like Planet Labs, Umbra, and HawkEye 360; GPS; miniature CubeSats for education and research; and military/defense satellites.

Loading next visibility...
Identifier
59929, 2024-106H
Orbit
LEO
Country
Flag of USUS
Related business
Manufacturer
SpaceX/Seattle
Mission
Operational Commercial Communications
Bus & Motor
STARLINK V2M, Unknown motor
Mass
730 kg wet, ~700 kg dry
Launch date (UTC)
2024-06-01 (2 years ago)
Launch vehicle
FALCON 9
Launch site
Air Force Eastern Test Range (AFETR)
Object type
Payload
Rocket body
Debris
Shape & HBR
Box + 2 Pan, 17.7 m
Radar Cross Section
33.884 m², Large (>1 m²)

Expand to show TLE details & history
Last TLE update: 5 hours ago

TLE from 5 hours ago
0 STARLINK-31932
1 59929U 24106H   25355.45494493  .00248950  00000-0  87286-2 0  9990
2 59929  43.0035  51.1491 0002718 129.4855 230.6237 15.27679493 88590
Epoch: 2025-12-21T10:55Z
TLE epoch observation values (Epoch: 2025-12-21T10:55:07.241Z)
Latitude
-0.00007°
Longitude
157.10171°
Altitude
483.71 km
Speed
7.625 km/s
True Right ascension
03h 24m 35s
True Declination
0° 00' 00"
Sunlit
Object was in full shadow at epoch
Visualization orbit readout
Latitude
Unknown
Longitude
Unknown
Altitude
Unknown
Speed
Unknown
Apparent Right ascension
Unknown
Apparent Declination
Unknown
Sunlit
N/A
Visualization observer readout
Local Sidereal Time
15:16:03
Azimuth
Unknown
Elevation
Unknown
Doppler factor
Unknown
Orbital elements
Apogee altitude
486.561 km
Perigee altitude
482.831 km
Semi-major axis
6,862.833 km
Eccentricity
0.00027
Inclination
43.0035°
RAAN
51.1491°
Arg. of periapsis
129.4855°
True anomaly
230.59963°
Mean anomaly
230.6237°
Eccentric anomaly
230.61166°
Mean motion
3.81758 °/min
Orbital period
94.3 mins
BSTAR
0.0087286
Loading maneuver chart data...
Computing Atmospheric mass density...
Loading historical data...
Loading historical data...
Loading historical data...
Loading historical data...
Loading historical data...
Loading historical data...
Loading historical data...

Documentation

Showing up to 5 results
|